User: anonymous   Login
Location: Granada
(37.1830°N, 3.6000°W)
Time: 14:13:11
(UTC+02:00)
Language:

Iridium 70 - Orbit

View from above orbital plane
View from above orbital plane
View from above satellite
View from above satellite

Ground track
Ground track

The orbit data is extracted from the following two-line orbital elements,

1 25342U 98032A   15148.51969340  .00000082  00000-0  22315-4 0  9991
2 25342 086.3981 177.9965 0002240 089.2774 022.2248 14.34216393891501
Epoch (UTC): 28 May 2015 12:28:21
Eccentricity: 0.0002240
inclination: 86.3981°
perigee height: 776 km
apogee height: 779 km
right ascension of ascending node: 177.9965°
argument of perigee: 89.2774°
revolutions per day: 14.34216393
mean anomaly at epoch: 22.2248°
orbit number at epoch: 89150

The dashed part of the orbit path shows where the satellite is in the earth's shadow,  

DLR